Regional Weather Roundup
Issued by NWS

Home | Current Version | Previous Version | Text Only | Print | Product List | Glossary On
Versions: 1 2 3 4 5 6 7 8 9 10 11 12 13 14 15 16 17 18 19 20 21 22 23 24 25 26 27 28 29 30 31 32 33 34 35 36 37 38 39 40 41 42 43 44 45 46 47 48 49 50
000
ASUS43 KDTX 092201
RWRMI
MICHIGAN HOURLY REGIONAL WEATHER ROUNDUP
NATIONAL WEATHER SERVICE DETROIT/PONTIAC MI
600 PM EDT WED JUL 09 2014

NOTE: "FAIR" INDICATES FEW OR NO CLOUDS BELOW 12,000 FEET WITH NO
SIGNIFICANT WEATHER AND/OR OBSTRUCTION TO VISIBILITY.

MIZ047>049-052>055-059>063-066>070-074>076-081>083-092300-
SOUTHEAST LOWER MICHIGAN

CITY           SKY/WX    TMP DP  RH WIND       PRES   REMARKS
ADRIAN         PTSUNNY   75  56  51 NW8       29.95R
ALMA           PTSUNNY   69  50  50 W3        29.96S
ANN ARBOR      MOSUNNY   75  55  49 NW9       29.94R
BAD AXE        PTSUNNY   69  49  49 W8        29.95R
CARO           MOSUNNY   72  53  50 CALM      29.95R
DETROIT CITY   PTSUNNY   73  55  53 CALM      29.94R
DETROIT        PTSUNNY   77  57  50 W9        29.94R
FLINT          MOSUNNY   74  53  48 NW8       29.96R
GROSSE ILE     PTSUNNY   77  55  47 NW6       29.92R
HILLSDALE      PTSUNNY   73  58  59 NW8       29.97R
HOWELL         MOSUNNY   70  54  57 NW7       29.96R

CITY           SKY/WX    TMP DP  RH WIND       PRES   REMARKS
JACKSON        MOSUNNY   74  56  53 VRB6      29.96R
LAMBERTVILLE   MOSUNNY   79  52  38 NW7       29.93S
LANSING        PTSUNNY   70  53  54 W5        29.96R
LAPEER         FAIR      70  53  53 NW7       29.96R
MASON          SUNNY     71  55  55 NW8       29.96R
MONROE         MOSUNNY   75  55  50 NW10      29.92R
MT. CLEMENS    MOSUNNY   73  56  54 N8        29.92R
PONTIAC        PTSUNNY   71  53  52 NW10      29.95R
PORT HOPE        N/A     63  53  70 SE13      29.94R
PORT HURON     PTSUNNY   72  57  60 N5        29.94S
TRI CITIES     MOSUNNY   73  53  49 W10       29.95R
TROY           MOSUNNY   74  53  48 N8        29.95R
SAGINAW HB     PTSUNNY   72  48  43 W7        29.95R
$$
MIZ043>046-050>051-056>058-064>065-071>073-077>080-092300-
SOUTHWEST LOWER MICHIGAN

CITY           SKY/WX    TMP DP  RH WIND       PRES   REMARKS
BATTLE CREEK   PTSUNNY   72  55  55 NW12      29.98R
BENTON HARBOR  SUNNY     71  58  63 CALM      29.98R
BIG RAPIDS     PTSUNNY   70  51  50 N6        29.96R
COLDWATER      PTSUNNY   74  58  55 NW12      29.97R
FREMONT        FAIR      71  48  44 N10       29.97R
HOLLAND        SUNNY     73  55  53 NW10      29.99R
GRAND RAPIDS   PTSUNNY   73  54  51 NW8       29.96R
IONIA          MOCLDY    69  53  57 N5        29.95S
KALAMAZOO      SUNNY     74  54  49 NW13      29.97S
LUDINGTON      CLOUDY    65  52  62 NW8       29.99R
MARSHALL       PTSUNNY   71  55  56 NW6       29.96S
MOUNT PLEASANT PTSUNNY   70  52  52 CALM      29.95S
MUSKEGON       MOSUNNY   71  51  49 W9        29.98R
SOUTH HAVEN    SUNNY     70  58  64 N5        29.99R
$$
MIZ016>042-092300-
NORTHERN LOWER MICHIGAN

CITY           SKY/WX    TMP DP  RH WIND       PRES   REMARKS
ALPENA         CLOUDY    62  52  69 S8        29.94R
BEAVER ISLAND  SUNNY     64  55  73 W12       29.97R
BELLAIRE       MOSUNNY   65  51  60 NW3       29.97R
CADILLAC       CLOUDY    67  51  56 NW10G16   29.96S
CHARLEVOIX     CLOUDY    62  53  73 W12       30.00S
FRANKFORT      CLOUDY    62  52  67 W6        30.00R
GAYLORD        PTSUNNY   62  49  62 NW8       29.97R
GRAYLING       CLOUDY    68  48  50 W12G17    29.97R
HARBOR SPRINGS CLOUDY    60  54  80 W7        29.96R
HOUGHTON LAKE  CLOUDY    67  50  54 N8        29.96R
MANISTEE       CLOUDY    63  50  63 NW8       30.00R
OSCODA         CLOUDY    66  53  61 NE9       29.94R
PELLSTON       SUNNY     65  51  60 W13       29.95R
ROGERS CITY    PTSUNNY   65  55  70 N9        29.94R
TRAVERSE CITY  PTSUNNY   66  51  58 NW9       29.96R
$$
MIZ007>008-015-092300-
EASTERN UPPER MICHIGAN

CITY           SKY/WX    TMP DP  RH WIND       PRES   REMARKS
KINROSS        PTSUNNY   63  50  63 N14       29.93R
MACKINAC ISLAN MOSUNNY   62  52  71 W12G21    29.94R
NEWBERRY       SUNNY     63  46  55 W14G21    29.95R
S. S. MARIE    PTSUNNY   59  46  62 NW13      29.94R
$$
MIZ004>006-011>014-085-092300-
CENTRAL UPPER MICHIGAN

CITY           SKY/WX    TMP DP  RH WIND       PRES   REMARKS
MANISTIQUE     MOSUNNY   65  47  50 N13       29.96R
ESCANABA       PTSUNNY   64  52  63 S8        29.97R
MENOMINEE      CLOUDY    66  50  55 W5        29.97R
SAWYER-GWINN   SUNNY     63  46  55 NE12      29.98R
$$
MIZ001>003-009>011-084-092300-
WESTERN UPPER MICHIGAN

CITY           SKY/WX    TMP DP  RH WIND       PRES   REMARKS
IRON MOUNTAIN  CLOUDY    65  47  52 NW12      29.98R
HOUGHTON       SUNNY     65  47  52 W12       29.98R
COPPER HARBOR    N/A     64  50  60 N12       29.95S
$$

ABBREVIATIONS USED IN REMARKS
   TC - TEMPERATURE IN CELSIUS
  WCI - WIND CHILL INDEX
   HX - HEAT INDEX
  VSB - VISIBILITY




USA.gov is the U.S. government's official web portal to all federal, state and local government web resources and services.